www.pogodaiklimat.ru

АРХИВ ПОГОДЫ в Сент-Луисе

Время (UTC), дата Ветер
(напр.,м/с)
 
Видим.   Явления Облачность Т
(С)
Тd
(С)
f
(%)
Тe
(С)
Тes
(С)
Комфортность

P
(гПа)

Po
(гПа)
Тmin
(С)
Tmax
(С)
R
(мм)
SD
(см)
10:51 17.08 ЮЗ  16 км  слабый дождь  10/5 1500 м
[средняя] 
+25.6  +20.0  71  +31  +31  очень
душно 
1011.9  991.2  +24.4  +25.6     
11:05 17.08 ЮЗ  10
{16} 
2 км  гроза с дождем  10/8 1800 м
[средняя] 
+25.6  +20.6  74  +32  +32  очень
душно 
           
11:10 17.08 З  11
{16} 
6 км  гроза с сильным дождем  10/8 750 м
[средняя] 
+25.0  +20.6  77  +31  +31  очень
душно 
           
11:17 17.08 ЮЗ  8
{15} 
3 км  -TSGRRA  10/8 900 м
[средняя] 
+25.0  +20.6  77  +31  +31  очень
душно 
           
11:26 17.08 З  8
{14} 
6 км  гроза со слабым дождем  10/8 900 м
[средняя] 
+24.4  +20.6  79  +30  +30  очень
душно 
           
11:33 17.08 СЗ  16 км  гроза со слабым дождем  10/8 900 м
[средняя] 
+23.9  +20.6  82  +30  +30  очень
душно 
  992.5         
11:51 17.08 СЗ  16 км  гроза  10/8 900 м
[средняя] 
+23.9  +20.6  82  +30  +30  очень
душно 
1013.8  992.8         
12:25 17.08 З  16 км    10/2 1050 м
[средняя] 
+23.3  +20.6  85  +31  +31  очень
душно 
  993.5         
12:51 17.08 СЗ  16 км  слабый дождь  10/2 900 м
[средняя] 
+23.9  +20.0  79  +29  +30  душно  1013.6  992.8         
13:51 17.08 Ю  16 км    10/2 900 м
[средняя верхняя] 
+24.4  +20.0  76  +30  +32  очень
душно 
1012.3  991.5      3.0   
14:51 17.08 Ю  16 км    8/0 2400 м
[средняя] 
+25.0  +21.7  82  +32  +34  очень
душно 
1012.5  991.8         
15:51 17.08 ЮВ  16 км    8/0 2400 м
[средняя верхняя] 
+27.2  +20.0  65  +33  +35  очень
душно 
1012.6  991.8         
16:51 17.08 Ю  16 км    8/2 1200 м
[средняя верхняя] 
+28.3  +19.4  59  +34  +36  очень
душно 
1011.3  990.5  +23.3  +28.9  3.0   
17:51 17.08 Ю  16 км    8/2 1200 м
[средняя верхняя] 
+30.0  +20.6  57  +37  +42  очень
душно 
1010.6  989.8         
18:51 17.08 ЮЗ  16 км    8/5 1200 м
[средняя верхняя] 
+31.7  +21.7  55  +40  +44  очень
душно 
1010.6  990.2         
19:51 17.08 ЮЗ  16 км    8/8 1170 м
[средняя верхняя] 
+31.1  +21.1  55  +39  +41  очень
душно 
1010.6  989.8         
20:51 17.08 ЮЗ  16 км    8/2 1290 м
[средняя] 
+31.1  +21.7  57  +39  +43  очень
душно 
1010.3  989.5         
21:51 17.08 З  16 км    8/2 1290 м
[средняя] 
+31.7  +22.2  57  +41  +43  опасность
перегрева 
1010.2  989.5         
22:51 17.08 СЗ  16 км    8/2 1200 м
[средняя верхняя] 
+31.1  +22.2  59  +40  +41  очень
душно 
1009.6  989.2  +28.3  +31.7     
23:51 17.08   16 км    8/2 1200 м
[средняя верхняя] 
+29.4  +23.3  70  +40  +40  очень
душно 
1009.8  989.2         
00:51 18.08 ЮВ  16 км    8/5 1500 м
[средняя верхняя] 
+28.3  +23.3  74  +38  +38  очень
душно 
1010.2  989.5         
01:51 18.08 ЮВ  16 км    8/2 1500 м
[средняя верхняя] 
+27.8  +23.3  77  +38  +38  очень
душно 
1010.6  989.8         
02:51 18.08 Ю  16 км    8/0 4500 м
[средняя верхняя] 
+28.3  +22.8  72  +38  +38  очень
душно 
1010.6  989.8         
03:51 18.08 Ю  16 км    5/0 4500 м
[средняя верхняя] 
+28.3  +21.7  67  +36  +36  очень
душно 
1010.9  990.2         
04:51 18.08 Ю  16 км    2/0 7500 м
[верхняя] 
+27.8  +21.7  69  +36  +36  очень
душно 
1010.6  990.2  +27.8  +30.6     
05:51 18.08 Ю  16 км    2/0 7500 м
[верхняя] 
+27.2  +21.1  69  +34  +34  очень
душно 
1009.9  989.5         
06:51 18.08 Ю  16 км    2/0 7500 м
[верхняя] 
+26.7  +21.1  71  +34  +34  очень
душно 
1009.4  988.9         
07:51 18.08 Ю  16 км    8/0 7500 м
[верхняя] 
+26.1  +21.1  74  +33  +33  очень
душно 
1009.2  988.9         
08:51 18.08 Ю  16 км    8/0 7500 м
[верхняя] 
+26.1  +21.1  74  +33  +33  очень
душно 
1010.0  989.5         
09:51 18.08 Ю  16 км    10/0 4500 м
[средняя верхняя] 
+26.7  +20.6  69  +33  +33  очень
душно 
1009.4  988.9         
10:51 18.08 ЮЗ  16 км    8/0 4500 м
[средняя верхняя] 
+26.7  +20.6  69  +33  +33  очень
душно 
1010.1  989.5  +26.1  +27.8     
11:51 18.08 ЮЗ  16 км    10/2 1800 м
[средняя верхняя] 
+27.2  +20.6  67  +34  +34  очень
душно 
1010.1  989.5         
12:51 18.08 З  16 км    8/5 1500 м
[средняя верхняя] 
+27.8  +21.7  69  +36  +36  очень
душно 
1011.2  990.5         
13:51 18.08 З  16 км    8/2 1500 м
[средняя верхняя] 
+29.4  +21.7  63  +37  +39  очень
душно 
1011.2  990.5         
14:51 18.08 З  16 км    8/8 990 м
[верхняя] 
+29.4  +21.7  63  +37  +38  очень
душно 
1011.6  990.8         
15:51 18.08 С  16 км  слабый дождь  8/8 1800 м
[средняя верхняя] 
+28.9  +20.6  61  +36  +37  очень
душно 
1012.2  991.5         
16:51 18.08 СВ  16 км    8/2 1800 м
[средняя] 
+27.2  +20.0  65  +33  +38  очень
душно 
1011.4  990.8  +26.7  +31.1     
17:51 18.08 СВ  16 км    8/2 1800 м
[средняя верхняя] 
+28.3  +19.4  59  +34  +41  очень
душно 
1011.5  990.8         
18:51 18.08   16 км    8/2 1800 м
[средняя] 
+28.3  +20.6  63  +35  +44  очень
душно 
1010.5  989.8         
19:51 18.08 СВ  16 км    8/2 1800 м
[средняя] 
+28.3  +21.1  65  +36  +41  очень
душно 
1010.1  989.5         
20:51 18.08   16 км    5/0 4500 м
[средняя] 
+30.0  +22.2  63  +39  +48  очень
душно 
1009.9  989.5         
21:51 18.08 ЮЗ  16 км    5/2 1500 м
[средняя] 
+31.7  +21.7  55  +40  +44  очень
душно 
1009.8  989.2         
22:51 18.08 СЗ  16 км    2/2 1500 м
[средняя] 
+30.6  +22.8  63  +40  +42  очень
душно 
1010.1  989.5  +27.2  +31.7     
23:51 18.08 З  16 км    5/2 1500 м
[верхняя] 
+28.3  +22.8  72  +38  +38  очень
душно 
1010.8  990.2         
00:51 19.08   16 км    2/2 1500 м
[верхняя] 
+28.3  +22.2  70  +37  +37  очень
душно 
1011.4  990.8         
01:51 19.08 ЮЗ  16 км    ясно  +27.8  +21.1  67  +35  +35  очень
душно 
1011.8  991.2         
02:51 19.08 ЮЗ  16 км    ясно  +27.2  +21.1  69  +34  +34  очень
душно 
1012.1  991.5         
03:51 19.08 Ю  16 км    ясно  +26.7  +21.1  71  +34  +34  очень
душно 
1012.6  991.8         

 

Местоположение метеостанции Lambert-St. Louis International Airport: широта 38.7525 долгота -90.3736 высота над уровнем моря 184 м.

В архиве по умолчанию представлена погода в Сент-Луисе за последние 1-2 суток. Обновление информации о фактической погоде в базе происходит ежечасно! Архивные данные за месяц целиком и за предыдущие месяцы Вы можете получить, выбрав интересующий диапазон дат из раскрывающегося списка и нажав кнопку "Ввод!".

Внимание! Архив погоды МЕТАР в базе сайта в настоящее время начинается c 1 января 2011 г. Нет смысла пытаться выбрать более раннюю дату.

Внимание! Время в таблицах - всемирное. Для получения местного времени необходимо прибавить поправку, которая в Сент-Луисе равна -6 ч.

Ветер - указаны скорость ветра в м/с и направление, откуда дует ветер: С - северный, СВ - северо-восточный, В - восточный, ЮВ - юго-восточный, Ю - южный, ЮЗ - юго-западный, З - западный, СЗ - северо-западный.
Видимость - горизонтальная дальность видимости в метрах или километрах. При видимости от 1 до 10 км при отсутствии осадков обычно наблюдается дымка, при ухудшении видимости до 1 км и менее - туман. В сухую погоду видимость может ухудшаться дымом, пылью или мглою.
Атмосферные явления - указаны явления, наблюдавшиеся в указанный момент времени.
Облачность - указаны через наклонную черту верхняя и нижняя облачность в баллах и высота нижней границы облаков в метрах. Внимание: облачность, как и прочие метеорологические величины в США измеряются автоматическими метеостанциями. Указанные значения в баллах носят условный характер и показывают процент времени, в течение которого, в среднем, лазерный луч высотомера отражался от облаков обратно.
T - Температура воздуха - температура, измеренная на высоте 2 м над землей.
Td - Температура точки росы - температура, при понижении до которой содержащийся в воздухе водяной пар достигнет насыщения.
f - Относительная влажность воздуха - влажноcть воздуха, измеренная на высоте 2 м над землей.
Te - Эффективная температура - температура, которую ощущает одетый по сезону человек в тени. Характеристика душности погоды. При расчете учитывается влияние влажности воздуха и скорости ветра на теплоощущения человека.
Tes - Эффективная температура на солнце - температура, которую ощущает человек, с поправкой на солнечный нагрев. Характеристика знойности погоды. Зависит от высоты солнца над горизонтом, облачности и скорости ветра. Ночью, в пасмурную погоду, а также при ветре 12 м/с и более поправка равна нулю.
P - Атмосферное давление - приведенное к уровню моря атмосферное давление.
Po - Атмосферное давление - измеренное на уровне метеостанции атмосферное давление.
Tmin - Минимальная температура - минимум температуры воздуха на высоте 2 м над землей.
Tmax - Максимальная температура - максимум температуры воздуха на высоте 2 м над землей.
R - Количество осадков - Количество выпавших осадков за 3 или 6 часов, мм.
SD - Снежный покров - Высота снежного покрова, см.